Regional Weather Roundup
Issued by NWS San Angelo, TX

Home | Current Version | Previous Version | Text Only | Print | Product List | Glossary On
Versions: 1 2 3 4 5 6 7 8 9 10 11 12 13 14 15 16 17 18 19 20 21 22 23 24 25 26 27 28 29 30 31 32 33 34 35 36 37 38 39 40 41 42 43 44 45 46 47 48 49 50
000
ASUS44 KSJT 201810
RWRSJT
WEST CENTRAL TEXAS REGIONAL WEATHER ROUNDUP
NATIONAL WEATHER SERVICE SAN ANGELO TX
1200 PM CST MON NOV 20 2017

NOTE: "FAIR" INDICATES FEW OR NO CLOUDS BELOW 12,000 FEET WITH NO
SIGNIFICANT WEATHER AND/OR OBSTRUCTIONS TO VISIBILITY.

TXZ049-054-064>066-071>073-076>078-098-099-113-114-127-128-139-140-
154-155-168>170-201900
...LOCATIONS ACROSS WEST CENTRAL TEXAS...

CITY           SKY/WX    TMP DP  RH WIND       PRES   REMARKS
SAN ANGELO     SUNNY     63  28  26 SW16G23   30.09F
ABILENE        SUNNY     58  30  34 S23G31    30.06F
DYESS AFB      MOSUNNY   60  34  37 S16G29    30.04F
JUNCTION       SUNNY     61  30  31 S14G20    30.12F
SWEETWATER     SUNNY     60  28  29 S20       30.07F
BROWNWOOD      NOT AVBL
COLEMAN        CLEAR     61  29  30 S17G24    30.11F
SONORA         SUNNY     61  28  29 S12G20    30.15F
OZONA          FAIR      61  28  29 S16G26    30.13F
BRADY          NOT AVBL
$$

TEXAS PANHANDLE/OKLAHOMA PANHANDLE

CITY           SKY/WX    TMP DP  RH WIND       PRES   REMARKS
AMARILLO       CLOUDY    58  18  21 W5        29.92F
BORGER         CLOUDY    58  17  20 VRB6      29.90F
CANADIAN       CLOUDY    60  21  22 SW12      29.87F
DALHART        CLOUDY    60  20  21 S9        29.91F
DUMAS          CLOUDY    58  18  21 SW12      29.90F
GUYMON         NOT AVBL
HEREFORD       CLOUDY    63  16  16 MISG      29.93F
PAMPA          CLOUDY    61  19  19 SW7       29.91S
PERRYTON       CLOUDY    62  20  20 SW10      29.86S
$$

SOUTHERN PANHANDLE/SOUTH PLAINS/ROLLING PLAINS

CITY           SKY/WX    TMP DP  RH WIND       PRES   REMARKS
LUBBOCK        CLOUDY    61  19  19 SW20      29.97F
SNYDER         SUNNY     57  29  34 S15G22    30.03F
CHILDRESS      CLOUDY    61  24  24 S16G23    29.95F
SEMINOLE       CLEAR     62  24  23 SW10      30.04F
$$

PERMIAN BASIN

CITY           SKY/WX    TMP DP  RH WIND       PRES   REMARKS
MIDLAND        SUNNY     62  27  26 SW16      30.04F
ODESSA         SUNNY     60  26  27 SW15      30.05F
WINK           CLOUDY    60  24  25 SW8       30.04F
$$

FAR WEST/SOUTHWEST MOUNTAINS/TRANS PECOS

CITY           SKY/WX    TMP DP  RH WIND       PRES   REMARKS
ALPINE         CLOUDY    67  28  23 W15G21    30.15F
DRYDEN           N/A     61  27  27 S10       30.09F
EL PASO        MOSUNNY   56  17  21 CALM      30.15F
FORT STOCKTON  SUNNY     65  31  28 NW6       30.07F
GUADALUPE PASS SUNNY     52  19  27 SW22G30   30.13F
MARFA          CLOUDY    63  28  26 W14G21    30.15F
PECOS          CLOUDY    62  29  29 SE5       30.05F
$$

DALLAS/FORT WORTH METROPLEX

CITY           SKY/WX    TMP DP  RH WIND       PRES   REMARKS
DFW AIRPORT    MOSUNNY   63  30  28 S18       30.10F
FTW MEACHAM    SUNNY     64  32  30 S18G28    30.11F
DAL-EXECUTIVE  MOSUNNY   61  32  33 S15G23    30.12F
GRAND PRAIRIE  SUNNY     61  30  31 S12G23    30.13F
ADDISON        SUNNY     61  28  29 S13G22    30.13F
MESQUITE       CLEAR     61  30  31 S12G23    30.15F
LANCASTER      CLEAR     61  31  32 S15       30.15F
$$

NORTH CENTRAL TEXAS

CITY           SKY/WX    TMP DP  RH WIND       PRES   REMARKS
SHRMAN/DENISON CLEAR     61  29  29 S20G26    30.11F
GAINESVILLE    SUNNY     61  29  30 S13G22    30.10F
BRIDGEPORT     NOT AVBL
DENTON         SUNNY     62  31  31 SW18      30.11F
WAXAHACHIE     CLEAR     61  34  36 S15       30.15F
GRANBURY       CLEAR     64  31  30 S9        30.12F
$$

WESTERN NORTH TEXAS

CITY           SKY/WX    TMP DP  RH WIND       PRES   REMARKS
WICHITA FALLS  MOSUNNY   62  27  26 S23G33    30.02F
VERNON         CLEAR     63  18  17 SW23      30.00F
BRECKENRIDGE   CLEAR     64  27  25 SW20G25   30.08F HAZE
COMANCHE       SUNNY     63  32  31 S17       30.10F
$$

CENTRAL AND SOUTH CENTRAL TEXAS

CITY           SKY/WX    TMP DP  RH WIND       PRES   REMARKS
AUSTIN/BERGSTM MOSUNNY   63  33  32 S10       30.16F
WACO           SUNNY     62  32  32 S18       30.16F
HILLSBORO      CLEAR     61  34  35 S18       30.14F
TEMPLE         SUNNY     62  33  33 S18G24    30.16F
KILLEEN-GRAY   SUNNY     62  31  31 S14       30.13F
FORT HOOD      SUNNY     62  31  31 S12       30.11F
GEORGETOWN     SUNNY     61  33  35 S10       30.18F
LAGO VISTA     FAIR      62  33  34 SE9       30.16F
SAN MARCOS     SUNNY     64  34  32 S7        30.17F
NEW BRAUNFELS  SUNNY     65  34  31 S9        30.15F
RANDOLPH AFB   SUNNY     65  32  30 S10       30.16F
SAN ANTONIO    MOSUNNY   64  31  28 S7        30.17F
STINSON        SUNNY     67  33  28 SE7       30.15F
PLEASANTON     NOT AVBL
LA GRANGE      SUNNY     67  42  39 S8        30.16F
GIDDINGS       CLEAR     63  34  34 S6        30.19F
$$

EAST TEXAS

CITY           SKY/WX    TMP DP  RH WIND       PRES   REMARKS
PARIS          SUNNY     61  32  33 SW16G22   30.14F
CLARKSVILLE    NOT AVBL
TYLER          SUNNY     60  30  32 S13       30.16F
LONGVIEW       SUNNY     61  34  36 S12       30.17F
PALESTINE      CLEAR     60  33  35 SE10      30.20F
NACOGDOCHES    SUNNY     59  33  37 S5        30.21F
$$

TEXAS HILL COUNTRY AND EDWARDS PLATEAU

CITY           SKY/WX    TMP DP  RH WIND       PRES   REMARKS
LLANO          CLEAR     64  32  29 E10       30.16F
HORSESHOE BAY  FAIR      64  33  30 S8        30.15F
KERRVILLE      SUNNY     61  35  37 S10G16    30.15F
FREDERICKSBRG  SUNNY     60  30  31 S12G17    30.14F
ROCKSPRINGS    NOT AVBL
HONDO          SUNNY     66  31  27 SW3       30.17F
UVALDE         CLEAR     62  33  33 S8        30.17F
DEL RIO        SUNNY     63  34  33 S14G22    30.13F
$$

SOUTHEAST TEXAS

CITY           SKY/WX    TMP DP  RH WIND       PRES   REMARKS
COLLEGE STN    SUNNY     63  35  35 S10G18    30.19F
CALDWELL       CLEAR     63  33  32 S10G18    30.19F
CROCKETT         N/A     59  34  38 S6        30.23F
BRENHAM        CLOUDY    65  40  40 S12       30.20F
HUNTSVILLE     SUNNY     62  33  33 S7        30.20F
CONROE         SUNNY     61  37  41 SE7       30.21F
HOUSTON BUSH   PTSUNNY   63  38  39 SE9       30.21F
HOUSTON HOBBY  SUNNY     64  44  48 S10       30.20F
PERLAND        MOSUNNY   66  45  46 E9        30.21F
WHARTON        PTCLDY    67  42  40 E3        30.20F
$$

THE UPPER TEXAS COAST

CITY           SKY/WX    TMP DP  RH WIND       PRES   REMARKS
ORANGE         PTCLDY    60  32  35 SE6       30.24F
PORT ARTHUR    PTSUNNY   59  31  34 E9        30.22F
GALVESTON      MOSUNNY   66  48  52 E7        30.20F
ANGLETON       CLOUDY    66  46  48 E9        30.19F
BAY CITY       CLOUDY    65  48  54 E7        30.18F
$$

TEXAS COASTAL BEND, RIO GRANDE PLAINS DEEP SOUTH TEXAS

CITY           SKY/WX    TMP DP  RH WIND       PRES   REMARKS
VICTORIA       MOSUNNY   66  44  45 VRB6      30.19F
BEEVILLE       CLOUDY    68  46  44 SE3       30.16F
ROCKPORT       CLOUDY    68  49  50 NE9       30.16F
PORT ARANSAS   NOT AVBL
PORT LAVACA    CLOUDY    63  45  51 NE8       30.19F
CORPUS CHRISTI CLOUDY    67  49  52 NE9       30.16F
KINGSVILLE NAS CLOUDY    65  54  67 NE7       30.16F
COTULLA        SUNNY     66  31  27 S7        30.16F
LAREDO         SUNNY     68  38  33 S7        30.16F
BROWNSVILLE    CLOUDY    62  59  90 N7        30.13S
PORT ISABEL    CLOUDY    65  60  84 NW5       30.12R
HEBBRONVILLE   CLOUDY    58  42  56 CALM      30.17F
MCALLEN        CLOUDY    63  50  62 N6        30.15F
WESLACO        CLOUDY    64  55  72 N5        30.14F
FALFURRIAS     NOT AVBL
EDINBURG       CLOUDY    62  48  61 N7        30.16F
$$



USA.gov is the U.S. government's official web portal to all federal, state and local government web resources and services.